Overview Statistics Trail Chart Weather Telemetry Raw packets
 

This is the latest recevied weather packets stored in our database for station/object OK5TVR-5. If no packets are shown the sender has not sent any weather packets the latest 10 day(s).

<< 12 13 14 15 16 17 18 >>
Time Temp. Humidity Pressure Rain* Wind** Luminosity Snow
1788383240 15.56° C 84% 1014.1 hPa 0 mm - 0 W/m² -
1788382345 - - - - - - -
1788382342 15.56° C 84% 1014.2 hPa 0 mm - 0 W/m² -
1788382341 - - - - - - -
1788381441 15.56° C 85% 1014.1 hPa 0 mm - 0 W/m² -
1788380541 15.56° C 82% 1014 hPa 0 mm - 0 W/m² -
1788379640 16.11° C 80% 1013.8 hPa 0 mm - 0 W/m² -
1788378740 16.67° C 78% 1013.5 hPa 0 mm - 0 W/m² -
1788377846 16.11° C 82% 1013.6 hPa 0.51 mm - 0 W/m² -
1788377845 16.11° C 82% 1013.6 hPa 0.51 mm - 0 W/m² -
1788377840 16.11° C 82% 1013.6 hPa 0.51 mm - 0 W/m² -
1788376946 16.67° C 81% 1013.7 hPa 0.51 mm - 0 W/m² -
1788376945 16.67° C 81% 1013.7 hPa 0.51 mm - 0 W/m² -
1788376941 16.67° C 81% 1013.7 hPa 0.51 mm - 0 W/m² -
1788376040 17.22° C 80% 1013.5 hPa 0.51 mm - 0 W/m² -
1788375145 17.22° C - - 0.51 mm - 0 W/m² -
1788375141 17.22° C - - 0.51 mm - 0 W/m² -
1788375140 17.22° C 78% 1013.3 hPa 0.51 mm - 0 W/m² -
1788374240 18.33° C 71% 1013.9 hPa 0 mm - 0 W/m² -
1788373341 20° C 54% 1012.6 hPa 0 mm - 0 W/m² -
1788372443 20.56° C 56% 1012.3 hPa 0 mm - 0 W/m² -
1788371540 21.11° C 51% 1012.1 hPa 0 mm - 1 W/m² -
1788370640 21.67° C 48% 1011.9 hPa 0 mm - 2 W/m² -
1788369741 21.67° C 47% 1012 hPa 0 mm - 7 W/m² -
1788368840 22.22° C 45% 1011.8 hPa 0 mm - 15 W/m² -

* Rain latest hour (hover to see other rain measurements)
** Current wind speed in m/s (hover to see current wind gust speed)